,,,PA_Meas_PMT16A,,PR_Meas_QMR101_102,,RH_Meas_QMH101,,SR_Meas_QMS101,,TA_Meas_QMH101,,GenWind,,GenWind,
date,time,status,PA,status,PR,status,RH,status,SR,status,TA,status,DirAvg,status,SpdAvg,
2012-08-10, 00:00:04,VALID,1001.68,VALID,0,VALID,89.0758,VALID,0,VALID,23.4458,VALID,51,VALID,0.545313,
2012-08-10, 00:01:04,VALID,1001.68,VALID,0,VALID,89.6633,VALID,0,VALID,23.428,VALID,51,VALID,0.400391,
2012-08-10, 00:02:04,VALID,1001.64,VALID,0,VALID,89.9609,VALID,0,VALID,23.4085,VALID,30,VALID,0.914063,
2012-08-10, 00:03:04,VALID,1001.64,VALID,0,VALID,89.9151,VALID,0,VALID,23.389,VALID,30,VALID,0.851563,
2012-08-10, 00:04:04,VALID,1001.61,VALID,0,VALID,89.8769,VALID,0,VALID,23.3482,VALID,30,VALID,0.560156,
2012-08-10, 00:05:04,VALID,1001.59,VALID,0,VALID,90.0677,VALID,0,VALID,23.311,VALID,68,VALID,0.907422,
2012-08-10, 00:06:04,VALID,1001.62,VALID,0,VALID,90.4491,VALID,0,VALID,23.2932,VALID,63,VALID,0.742188,
2012-08-10, 00:07:04,VALID,1001.54,VALID,0,VALID,90.3423,VALID,0,VALID,23.2524,VALID,63,VALID,1.0457,
2012-08-10, 00:08:04,VALID,1001.56,VALID,0,VALID,90.4491,VALID,0,VALID,23.2134,VALID,63,VALID,0.536719,
2012-08-10, 00:09:04,VALID,1001.53,VALID,0,VALID,90.9069,VALID,0,VALID,23.2347,VALID,346,VALID,0.863672,
2012-08-10, 00:10:04,VALID,1001.49,VALID,0,VALID,91.2197,VALID,0,VALID,23.2329,VALID,334,VALID,0.960547,
2012-08-10, 00:11:04,VALID,1001.53,VALID,0,VALID,91.1587,VALID,0,VALID,23.2329,VALID,330,VALID,0.736328,
2012-08-10, 00:12:04,VALID,1001.53,VALID,0,VALID,91.3266,VALID,0,VALID,23.2347,VALID,339,VALID,1.12266,
2012-08-10, 00:13:04,VALID,1001.53,VALID,0,VALID,91.3037,VALID,0,VALID,23.2152,VALID,339,VALID,0.238281,
2012-08-10, 00:14:04,VALID,1001.56,VALID,0,VALID,91.2274,VALID,0,VALID,23.1744,VALID,339,VALID,0.300391,
2012-08-10, 00:15:04,VALID,1001.54,VALID,0,VALID,91.2503,VALID,0,VALID,23.1549,VALID,339,VALID,0.0101562,
2012-08-10, 00:16:04,VALID,1001.51,VALID,0,VALID,91.4257,VALID,0,VALID,23.1549,VALID,335,VALID,0.619531,
2012-08-10, 00:17:04,VALID,1001.5,VALID,0,VALID,91.5326,VALID,0,VALID,23.1762,VALID,318,VALID,0.732031,
2012-08-10, 00:18:04,VALID,1001.51,VALID,0,VALID,91.6088,VALID,0,VALID,23.1762,VALID,345,VALID,0.823047,
2012-08-10, 00:19:04,VALID,1001.53,VALID,0,VALID,91.4486,VALID,0,VALID,23.1549,VALID,349,VALID,0.615625,
2012-08-10, 00:20:04,VALID,1001.56,VALID,0,VALID,91.2197,VALID,0,VALID,23.1566,VALID,6,VALID,0.766406,
2012-08-10, 00:21:04,VALID,1001.57,VALID,0,VALID,91.0595,VALID,0,VALID,23.1141,VALID,43,VALID,1.09648,
2012-08-10, 00:22:04,VALID,1001.56,VALID,0,VALID,91.1434,VALID,0,VALID,23.1531,VALID,39,VALID,0.930078,
2012-08-10, 00:23:04,VALID,1001.6,VALID,0,VALID,90.7085,VALID,0,VALID,23.1141,VALID,39,VALID,1.04023,
2012-08-10, 00:24:04,VALID,1001.54,VALID,0,VALID,90.5331,VALID,0,VALID,23.0964,VALID,32,VALID,0.961719,
2012-08-10, 00:25:04,VALID,1001.55,VALID,0,VALID,90.472,VALID,0,VALID,23.0769,VALID,18,VALID,1.04883,
2012-08-10, 00:26:04,VALID,1001.56,VALID,0,VALID,90.5788,VALID,0,VALID,23.0556,VALID,10,VALID,0.881641,
2012-08-10, 00:27:04,VALID,1001.54,VALID,0,VALID,90.5331,VALID,0,VALID,23.0573,VALID,11,VALID,0.773438,
2012-08-10, 00:28:04,VALID,1001.56,VALID,0,VALID,90.5941,VALID,0,VALID,23.0378,VALID,11,VALID,0.566016,
2012-08-10, 00:29:04,VALID,1001.55,VALID,0,VALID,90.8001,VALID,0,VALID,23.0573,VALID,11,VALID,0.330859,
2012-08-10, 00:30:04,VALID,1001.56,VALID,0,VALID,90.7391,VALID,0,VALID,23.0964,VALID,11,VALID,0.535156,
2012-08-10, 00:31:04,VALID,1001.61,VALID,0,VALID,90.5026,VALID,0,VALID,23.1354,VALID,16,VALID,0.600391,
2012-08-10, 00:32:04,VALID,1001.59,VALID,0,VALID,89.6862,VALID,0.104696,VALID,23.0964,VALID,57,VALID,1.10547,
2012-08-10, 00:33:04,VALID,1001.62,VALID,0,VALID,89.5717,VALID,0,VALID,23.0556,VALID,31,VALID,1.10508,
2012-08-10, 00:34:04,VALID,1001.64,VALID,0,VALID,89.5489,VALID,0.104696,VALID,23.0361,VALID,34,VALID,0.758984,
2012-08-10, 00:35:04,VALID,1001.63,VALID,0,VALID,89.4115,VALID,0,VALID,23.0183,VALID,41,VALID,0.880859,
2012-08-10, 00:36:04,VALID,1001.57,VALID,0,VALID,89.6328,VALID,0,VALID,22.9988,VALID,39,VALID,1.13945,
2012-08-10, 00:37:04,VALID,1001.59,VALID,0,VALID,89.9761,VALID,0,VALID,22.9793,VALID,39,VALID,1.33398,
2012-08-10, 00:38:04,VALID,1001.51,VALID,0,VALID,90.2813,VALID,0,VALID,23.0378,VALID,39,VALID,1.52656,
2012-08-10, 00:39:04,VALID,1001.51,VALID,0,VALID,90.0677,VALID,0,VALID,23.0751,VALID,41,VALID,1.17461,
2012-08-10, 00:40:04,VALID,1001.49,VALID,0,VALID,89.5794,VALID,0,VALID,23.0556,VALID,53,VALID,0.853125,
2012-08-10, 00:41:04,VALID,1001.48,VALID,0,VALID,89.7014,VALID,0,VALID,23.0361,VALID,53,VALID,0.578516,
2012-08-10, 00:42:04,VALID,1001.47,VALID,0,VALID,89.6709,VALID,0,VALID,22.9988,VALID,53,VALID,0.106641,
2012-08-10, 00:43:04,VALID,1001.47,VALID,0,VALID,89.8693,VALID,0,VALID,22.9598,VALID,47,VALID,0.435156,
2012-08-10, 00:44:04,VALID,1001.48,VALID,0,VALID,90.144,VALID,0,VALID,22.9598,VALID,31,VALID,0.180859,
2012-08-10, 00:45:04,VALID,1001.42,VALID,0,VALID,90.4797,VALID,0,VALID,22.919,VALID,31,VALID,0.476563,
2012-08-10, 00:46:04,VALID,1001.41,VALID,0,VALID,90.7009,VALID,0,VALID,22.9385,VALID,31,VALID,0.944141,
2012-08-10, 00:47:04,VALID,1001.42,VALID,0,VALID,90.5178,VALID,0,VALID,22.9385,VALID,31,VALID,1.01719,
2012-08-10, 00:48:04,VALID,1001.43,VALID,0,VALID,90.617,VALID,0,VALID,22.9793,VALID,41,VALID,0.850781,
2012-08-10, 00:49:04,VALID,1001.4,VALID,0,VALID,90.2508,VALID,0,VALID,23.0361,VALID,45,VALID,1.41328,
2012-08-10, 00:50:04,VALID,1001.42,VALID,0,VALID,89.8006,VALID,0,VALID,23.0751,VALID,45,VALID,0.914453,
2012-08-10, 00:51:04,VALID,1001.4,VALID,0,VALID,89.6938,VALID,0.104696,VALID,23.1159,VALID,45,VALID,0.796875,
2012-08-10, 00:52:04,VALID,1001.4,VALID,0,VALID,89.648,VALID,0,VALID,23.1531,VALID,38,VALID,0.810938,
2012-08-10, 00:53:04,VALID,1001.42,VALID,0,VALID,89.32,VALID,0,VALID,23.1726,VALID,34,VALID,0.430859,
2012-08-10, 00:54:04,VALID,1001.44,VALID,0,VALID,89.1368,VALID,0,VALID,23.1921,VALID,34,VALID,0.234375,
2012-08-10, 00:55:04,VALID,1001.43,VALID,0,VALID,89.0071,VALID,0,VALID,23.1921,VALID,34,VALID,0,
2012-08-10, 00:56:04,VALID,1001.42,VALID,0,VALID,89.03,VALID,0,VALID,23.1921,VALID,34,VALID,0,
2012-08-10, 00:57:04,VALID,1001.39,VALID,0,VALID,88.9614,VALID,0,VALID,23.1921,VALID,34,VALID,0.00117188,
2012-08-10, 00:58:04,VALID,1001.42,VALID,0,VALID,88.9385,VALID,0.104696,VALID,23.1531,VALID,34,VALID,0.412109,
2012-08-10, 00:59:04,VALID,1001.39,VALID,0,VALID,89.0224,VALID,0.104696,VALID,23.1744,VALID,34,VALID,0.563281,
2012-08-10, 01:00:04,VALID,1001.38,VALID,0,VALID,89.0453,VALID,0.104696,VALID,23.1726,VALID,34,VALID,0.510156,
2012-08-10, 01:01:04,VALID,1001.42,VALID,0,VALID,88.8774,VALID,0,VALID,23.1939,VALID,34,VALID,0.329688,
2012-08-10, 01:02:04,VALID,1001.39,VALID,0,VALID,88.9843,VALID,0,VALID,23.1726,VALID,34,VALID,0.503516,
2012-08-10, 01:03:04,VALID,1001.38,VALID,0,VALID,88.969,VALID,0,VALID,23.1726,VALID,34,VALID,0.602734,
2012-08-10, 01:04:04,VALID,1001.39,VALID,0,VALID,88.9461,VALID,0,VALID,23.2329,VALID,34,VALID,0.628125,
2012-08-10, 01:05:04,VALID,1001.39,VALID,0,VALID,88.8546,VALID,0,VALID,23.2117,VALID,55,VALID,0.975781,
2012-08-10, 01:06:04,VALID,1001.4,VALID,0,VALID,88.9614,VALID,0,VALID,23.2524,VALID,55,VALID,0.853516,
2012-08-10, 01:07:04,VALID,1001.4,VALID,0,VALID,88.7172,VALID,0,VALID,23.2702,VALID,55,VALID,0.876172,
2012-08-10, 01:08:04,VALID,1001.36,VALID,0,VALID,88.7325,VALID,0,VALID,23.3305,VALID,55,VALID,1.02188,
2012-08-10, 01:09:04,VALID,1001.33,VALID,0,VALID,88.3129,VALID,0,VALID,23.389,VALID,52,VALID,0.642969,
2012-08-10, 01:10:04,VALID,1001.31,VALID,0,VALID,87.8093,VALID,0,VALID,23.3695,VALID,52,VALID,0,
2012-08-10, 01:11:04,VALID,1001.29,VALID,0,VALID,88.084,VALID,0,VALID,23.3305,VALID,52,VALID,0.34375,
2012-08-10, 01:12:04,VALID,1001.24,VALID,0,VALID,88.6028,VALID,0.104696,VALID,23.3305,VALID,27,VALID,0.553516,
2012-08-10, 01:13:04,VALID,1001.24,VALID,0,VALID,88.6943,VALID,0,VALID,23.2897,VALID,18,VALID,0.517578,
2012-08-10, 01:14:04,VALID,1001.23,VALID,0,VALID,88.6486,VALID,0,VALID,23.311,VALID,277,VALID,0.551172,
2012-08-10, 01:15:04,VALID,1001.23,VALID,0,VALID,88.6486,VALID,0,VALID,23.2897,VALID,277,VALID,0.428516,
2012-08-10, 01:16:04,VALID,1001.24,VALID,0,VALID,88.5417,VALID,0,VALID,23.3092,VALID,277,VALID,0.0582031,
2012-08-10, 01:17:04,VALID,1001.24,VALID,0,VALID,88.5951,VALID,0,VALID,23.35,VALID,277,VALID,0,
2012-08-10, 01:18:04,VALID,1001.24,VALID,0,VALID,88.5341,VALID,0.104696,VALID,23.35,VALID,277,VALID,0,
2012-08-10, 01:19:04,VALID,1001.21,VALID,0,VALID,88.5112,VALID,0,VALID,23.3287,VALID,277,VALID,0,
2012-08-10, 01:20:04,VALID,1001.18,VALID,0,VALID,88.5494,VALID,0,VALID,23.3092,VALID,277,VALID,0,
2012-08-10, 01:21:04,VALID,1001.16,VALID,0,VALID,88.6333,VALID,0,VALID,23.3092,VALID,277,VALID,0,
2012-08-10, 01:22:04,VALID,1001.15,VALID,0,VALID,88.5723,VALID,0,VALID,23.3092,VALID,277,VALID,0,
2012-08-10, 01:23:04,VALID,1001.16,VALID,0,VALID,88.3586,VALID,0,VALID,23.3695,VALID,277,VALID,0.645703,
2012-08-10, 01:24:04,VALID,1001.13,VALID,0,VALID,88.145,VALID,0,VALID,23.3677,VALID,82,VALID,0.746875,
2012-08-10, 01:25:04,VALID,1001.16,VALID,0,VALID,87.7177,VALID,0.104696,VALID,23.4458,VALID,82,VALID,0.715625,
2012-08-10, 01:26:04,VALID,1001.13,VALID,0,VALID,87.0082,VALID,0,VALID,23.4848,VALID,82,VALID,1.11523,
2012-08-10, 01:27:04,VALID,1001.13,VALID,0,VALID,87.0769,VALID,0,VALID,23.4458,VALID,74,VALID,1.37383,
2012-08-10, 01:28:04,VALID,1001.17,VALID,0,VALID,87.2371,VALID,0,VALID,23.4067,VALID,65,VALID,1.07539,
2012-08-10, 01:29:04,VALID,1001.17,VALID,0,VALID,87.3515,VALID,0,VALID,23.3872,VALID,66,VALID,1.05625,
2012-08-10, 01:30:04,VALID,1001.15,VALID,0,VALID,87.6109,VALID,0,VALID,23.3287,VALID,70,VALID,0.875781,
2012-08-10, 01:31:04,VALID,1001.16,VALID,0,VALID,87.8169,VALID,0.104696,VALID,23.3305,VALID,70,VALID,0.770703,
2012-08-10, 01:32:04,VALID,1001.18,VALID,0,VALID,88.0382,VALID,0,VALID,23.2897,VALID,70,VALID,0.553516,
2012-08-10, 01:33:04,VALID,1001.18,VALID,0,VALID,88.1145,VALID,0,VALID,23.2702,VALID,70,VALID,0.25,
2012-08-10, 01:34:04,VALID,1001.12,VALID,0,VALID,88.2976,VALID,0.104696,VALID,23.2702,VALID,14,VALID,0.635156,
2012-08-10, 01:35:04,VALID,1001.13,VALID,0,VALID,88.2518,VALID,0,VALID,23.2702,VALID,317,VALID,0.503906,
2012-08-10, 01:36:04,VALID,1001.14,VALID,0,VALID,88.1984,VALID,0,VALID,23.2702,VALID,317,VALID,0.411328,
2012-08-10, 01:37:04,VALID,1001.13,VALID,0,VALID,88.1297,VALID,0.104696,VALID,23.2915,VALID,348,VALID,0.658203,
2012-08-10, 01:38:04,VALID,1001.13,VALID,0,VALID,88.1526,VALID,0,VALID,23.2507,VALID,341,VALID,0.734766,
2012-08-10, 01:39:04,VALID,1001.13,VALID,0,VALID,88.3205,VALID,0.104696,VALID,23.2312,VALID,337,VALID,0.391406,
2012-08-10, 01:40:04,VALID,1001.14,VALID,0,VALID,88.412,VALID,0,VALID,23.2117,VALID,337,VALID,0.462109,
2012-08-10, 01:41:04,VALID,1001.14,VALID,0,VALID,88.3739,VALID,0.104696,VALID,23.2117,VALID,337,VALID,0.495313,
2012-08-10, 01:42:04,VALID,1001.14,VALID,0,VALID,88.4197,VALID,0,VALID,23.2117,VALID,337,VALID,0.395312,
2012-08-10, 01:43:04,VALID,1001.16,VALID,0,VALID,88.3357,VALID,0.104696,VALID,23.2134,VALID,337,VALID,0.65625,
2012-08-10, 01:44:04,VALID,1001.17,VALID,0,VALID,88.5189,VALID,0.104696,VALID,23.1921,VALID,337,VALID,0.554297,
2012-08-10, 01:45:04,VALID,1001.16,VALID,0,VALID,88.7935,VALID,0.104696,VALID,23.1531,VALID,343,VALID,0.708594,
2012-08-10, 01:46:04,VALID,1001.19,VALID,0,VALID,89.0377,VALID,0.104696,VALID,23.1354,VALID,28,VALID,0.877734,
2012-08-10, 01:47:04,VALID,1001.15,VALID,0,VALID,89.2513,VALID,0.104696,VALID,23.1141,VALID,55,VALID,1.31016,
2012-08-10, 01:48:04,VALID,1001.16,VALID,0,VALID,90.1516,VALID,0.104696,VALID,23.1336,VALID,50,VALID,1.67891,
2012-08-10, 01:49:04,VALID,1001.12,VALID,0,VALID,90.9756,VALID,0.104696,VALID,23.1336,VALID,47,VALID,1.55547,
2012-08-10, 01:50:04,VALID,1001.1,VALID,0,VALID,91.09,VALID,0,VALID,23.0751,VALID,47,VALID,1.18633,
2012-08-10, 01:51:04,VALID,1001.12,VALID,0,VALID,90.9374,VALID,0,VALID,23.0183,VALID,61,VALID,0.869531,
2012-08-10, 01:52:04,VALID,1001.12,VALID,0,VALID,90.9909,VALID,0,VALID,22.9793,VALID,109,VALID,0.645312,
2012-08-10, 01:53:04,VALID,1001.11,VALID,0,VALID,91.1663,VALID,0,VALID,22.9208,VALID,112,VALID,0.474219,
2012-08-10, 01:54:04,VALID,1001.14,VALID,0,VALID,91.2045,VALID,0,VALID,22.9013,VALID,112,VALID,0.413672,
2012-08-10, 01:55:04,VALID,1001.1,VALID,0,VALID,91.3037,VALID,0,VALID,22.903,VALID,112,VALID,0.314063,
2012-08-10, 01:56:04,VALID,1001.11,VALID,0,VALID,91.3723,VALID,0,VALID,22.8818,VALID,112,VALID,0.0777344,
2012-08-10, 01:57:04,VALID,1001.09,VALID,0,VALID,91.5707,VALID,0,VALID,22.9013,VALID,112,VALID,0.421484,
2012-08-10, 01:58:04,VALID,1001.13,VALID,0,VALID,91.5478,VALID,0,VALID,22.9208,VALID,112,VALID,0.0421875,
2012-08-10, 01:59:04,VALID,1001.12,VALID,0,VALID,91.5249,VALID,0,VALID,22.9403,VALID,112,VALID,0,
2012-08-10, 02:00:04,VALID,1001.1,VALID,0,VALID,91.5554,VALID,0,VALID,22.919,VALID,112,VALID,0.00273437,
2012-08-10, 02:01:04,VALID,1001.09,VALID,0,VALID,91.441,VALID,0,VALID,22.9403,VALID,112,VALID,0.334766,
2012-08-10, 02:02:04,VALID,1001.08,VALID,0,VALID,91.5478,VALID,0,VALID,22.9598,VALID,112,VALID,0.303516,
2012-08-10, 02:03:04,VALID,1001.07,VALID,0,VALID,91.4257,VALID,0.104696,VALID,22.9971,VALID,112,VALID,0.0292969,
2012-08-10, 02:04:04,VALID,1001.03,VALID,0,VALID,90.8611,VALID,0,VALID,23.0183,VALID,110,VALID,0.129297,
2012-08-10, 02:05:04,VALID,1001.03,VALID,0,VALID,90.6017,VALID,0,VALID,22.9971,VALID,110,VALID,0.301562,
2012-08-10, 02:06:04,VALID,1001.04,VALID,0,VALID,90.3576,VALID,0,VALID,22.9793,VALID,110,VALID,0.387109,
2012-08-10, 02:07:04,VALID,1001.07,VALID,0,VALID,90.0906,VALID,0,VALID,22.9208,VALID,76,VALID,0.586328,
2012-08-10, 02:08:04,VALID,1001.02,VALID,0,VALID,90.2431,VALID,0,VALID,22.8623,VALID,23,VALID,0.798437,
2012-08-10, 02:09:04,VALID,1001.01,VALID,0,VALID,90.3118,VALID,0,VALID,22.7842,VALID,22,VALID,0.553906,
2012-08-10, 02:10:04,VALID,1001.01,VALID,0,VALID,90.4949,VALID,0,VALID,22.7469,VALID,22,VALID,0.835938,
2012-08-10, 02:11:04,VALID,1001.01,VALID,0,VALID,91.2274,VALID,0,VALID,22.7274,VALID,22,VALID,1.08828,
2012-08-10, 02:12:04,VALID,1001,VALID,0,VALID,91.3342,VALID,0,VALID,22.7079,VALID,22,VALID,1.23711,
2012-08-10, 02:13:04,VALID,1001,VALID,0,VALID,90.9985,VALID,0,VALID,22.6299,VALID,23,VALID,1.39375,
2012-08-10, 02:14:04,VALID,1001.03,VALID,0,VALID,91.1053,VALID,0,VALID,22.5323,VALID,16,VALID,1.05,
2012-08-10, 02:15:04,VALID,1001.01,VALID,0,VALID,91.5173,VALID,0,VALID,22.4331,VALID,25,VALID,0.892969,
2012-08-10, 02:16:04,VALID,1000.98,VALID,0,VALID,92.1658,VALID,0,VALID,22.4136,VALID,25,VALID,0.910156,
2012-08-10, 02:17:04,VALID,1000.96,VALID,0,VALID,92.326,VALID,0,VALID,22.3941,VALID,22,VALID,0.873047,
2012-08-10, 02:18:04,VALID,1000.94,VALID,0,VALID,92.6694,VALID,0,VALID,22.3941,VALID,2,VALID,0.896484,
2012-08-10, 02:19:04,VALID,1000.95,VALID,0,VALID,92.7991,VALID,0,VALID,22.4543,VALID,2,VALID,0.623438,
2012-08-10, 02:20:04,VALID,1000.95,VALID,0,VALID,92.8143,VALID,0,VALID,22.4543,VALID,341,VALID,1.03945,
2012-08-10, 02:21:04,VALID,1000.95,VALID,0,VALID,92.9288,VALID,0,VALID,22.4916,VALID,347,VALID,0.984375,
2012-08-10, 02:22:04,VALID,1000.96,VALID,0,VALID,92.9211,VALID,0,VALID,22.5111,VALID,347,VALID,0.510938,
2012-08-10, 02:23:04,VALID,1000.96,VALID,0,VALID,92.8296,VALID,0,VALID,22.5306,VALID,347,VALID,0.502734,
2012-08-10, 02:24:04,VALID,1000.95,VALID,0,VALID,92.738,VALID,0,VALID,22.5501,VALID,347,VALID,0.612891,
2012-08-10, 02:25:04,VALID,1000.94,VALID,0,VALID,92.7151,VALID,0,VALID,22.5714,VALID,7,VALID,1.01953,
2012-08-10, 02:26:04,VALID,1000.93,VALID,0,VALID,92.6083,VALID,0,VALID,22.5892,VALID,18,VALID,1.24219,
2012-08-10, 02:27:04,VALID,1000.88,VALID,0,VALID,92.2879,VALID,0,VALID,22.6672,VALID,18,VALID,0.95,
2012-08-10, 02:28:04,VALID,1000.9,VALID,0,VALID,91.853,VALID,0,VALID,22.6867,VALID,18,VALID,1.12109,
2012-08-10, 02:29:04,VALID,1000.89,VALID,0,VALID,91.6394,VALID,0,VALID,22.7469,VALID,18,VALID,1.00156,
2012-08-10, 02:30:04,VALID,1000.87,VALID,0,VALID,91.3876,VALID,0,VALID,22.8055,VALID,359,VALID,0.998828,
2012-08-10, 02:31:04,VALID,1000.87,VALID,0,VALID,91.0824,VALID,0,VALID,22.8037,VALID,359,VALID,0.800781,
2012-08-10, 02:32:04,VALID,1000.85,VALID,0,VALID,90.6857,VALID,0,VALID,22.8037,VALID,356,VALID,0.7,
2012-08-10, 02:33:04,VALID,1000.83,VALID,0,VALID,90.7162,VALID,0,VALID,22.7647,VALID,348,VALID,0.594922,
2012-08-10, 02:34:04,VALID,1000.77,VALID,0,VALID,90.9451,VALID,0,VALID,22.7257,VALID,348,VALID,0.676953,
2012-08-10, 02:35:04,VALID,1000.78,VALID,0,VALID,91.1587,VALID,0,VALID,22.6672,VALID,348,VALID,0.466016,
2012-08-10, 02:36:04,VALID,1000.79,VALID,0,VALID,91.441,VALID,0,VALID,22.6689,VALID,347,VALID,0.574219,
2012-08-10, 02:37:04,VALID,1000.77,VALID,0,VALID,91.5936,VALID,0,VALID,22.6299,VALID,348,VALID,0.458984,
2012-08-10, 02:38:04,VALID,1000.77,VALID,0,VALID,91.8225,VALID,0,VALID,22.6299,VALID,347,VALID,0.738281,
2012-08-10, 02:39:04,VALID,1000.76,VALID,0,VALID,91.9445,VALID,0,VALID,22.6299,VALID,348,VALID,0.767969,
2012-08-10, 02:40:04,VALID,1000.79,VALID,0,VALID,91.9217,VALID,0,VALID,22.6299,VALID,343,VALID,0.965234,
2012-08-10, 02:41:04,VALID,1000.82,VALID,0,VALID,91.9522,VALID,0,VALID,22.6299,VALID,318,VALID,0.5875,
2012-08-10, 02:42:04,VALID,1000.83,VALID,0,VALID,91.9369,VALID,0,VALID,22.6299,VALID,320,VALID,0.586328,
2012-08-10, 02:43:04,VALID,1000.85,VALID,0,VALID,91.3189,VALID,0,VALID,22.5714,VALID,37,VALID,0.817187,
2012-08-10, 02:44:04,VALID,1000.86,VALID,0,VALID,91.3723,VALID,0,VALID,22.4721,VALID,39,VALID,0.648828,
2012-08-10, 02:45:04,VALID,1000.84,VALID,0,VALID,91.3189,VALID,0,VALID,22.4153,VALID,25,VALID,0.336719,
2012-08-10, 02:46:04,VALID,1000.86,VALID,0,VALID,91.4715,VALID,0,VALID,22.2788,VALID,43,VALID,0.839453,
2012-08-10, 02:47:04,VALID,1000.88,VALID,0,VALID,92.4786,VALID,0,VALID,22.339,VALID,41,VALID,0.828125,
2012-08-10, 02:48:04,VALID,1000.82,VALID,0,VALID,92.7151,VALID,0,VALID,22.3373,VALID,26,VALID,0.997656,
2012-08-10, 02:49:04,VALID,1000.85,VALID,0,VALID,92.3337,VALID,0,VALID,22.2983,VALID,26,VALID,0.809375,
2012-08-10, 02:50:04,VALID,1000.91,VALID,0,VALID,91.9217,VALID,0,VALID,22.2007,VALID,26,VALID,1.27266,
2012-08-10, 02:51:04,VALID,1000.93,VALID,0,VALID,92.059,VALID,0,VALID,22.2202,VALID,26,VALID,1.27344,
2012-08-10, 02:52:04,VALID,1000.92,VALID,0,VALID,91.8148,VALID,0,VALID,22.1795,VALID,3,VALID,1.06484,
2012-08-10, 02:53:04,VALID,1000.94,VALID,0,VALID,92.1811,VALID,0,VALID,22.199,VALID,340,VALID,0.572266,
2012-08-10, 02:54:04,VALID,1000.93,VALID,0,VALID,92.326,VALID,0,VALID,22.2592,VALID,340,VALID,0.660156,
2012-08-10, 02:55:04,VALID,1000.96,VALID,0,VALID,92.3566,VALID,0,VALID,22.3178,VALID,345,VALID,0.877344,
2012-08-10, 02:56:04,VALID,1000.96,VALID,0,VALID,92.1429,VALID,0,VALID,22.3568,VALID,355,VALID,0.491797,
2012-08-10, 02:57:04,VALID,1000.94,VALID,0,VALID,91.7462,VALID,0,VALID,22.3373,VALID,8,VALID,0.845312,
2012-08-10, 02:58:04,VALID,1000.97,VALID,0,VALID,91.1511,VALID,0,VALID,22.2771,VALID,33,VALID,0.780859,
2012-08-10, 02:59:04,VALID,1000.94,VALID,0,VALID,91.2426,VALID,0,VALID,22.2007,VALID,56,VALID,0.664453,
2012-08-10, 03:00:04,VALID,1000.93,VALID,0,VALID,91.6851,VALID,0,VALID,22.2202,VALID,53,VALID,0.908594,
2012-08-10, 03:01:04,VALID,1000.93,VALID,0,VALID,91.8988,VALID,0,VALID,22.2397,VALID,47,VALID,1.06016,
2012-08-10, 03:02:04,VALID,1000.91,VALID,0,VALID,91.2274,VALID,0,VALID,22.199,VALID,50,VALID,1.52539,
2012-08-10, 03:03:04,VALID,1000.94,VALID,0,VALID,90.6399,VALID,0,VALID,22.1032,VALID,53,VALID,1.11406,
2012-08-10, 03:04:04,VALID,1000.95,VALID,0,VALID,90.5254,VALID,0,VALID,22.0057,VALID,37,VALID,0.717969,
2012-08-10, 03:05:04,VALID,1000.95,VALID,0,VALID,90.7085,VALID,0,VALID,21.926,VALID,36,VALID,0.378906,
2012-08-10, 03:06:04,VALID,1000.94,VALID,0,VALID,91.2579,VALID,0,VALID,21.887,VALID,348,VALID,0.866016,
2012-08-10, 03:07:04,VALID,1000.96,VALID,0,VALID,91.8377,VALID,0,VALID,21.887,VALID,340,VALID,0.397266,
2012-08-10, 03:08:04,VALID,1000.96,VALID,0,VALID,92.0514,VALID,0,VALID,21.887,VALID,49,VALID,1.41055,
2012-08-10, 03:09:04,VALID,1000.92,VALID,0,VALID,91.708,VALID,0,VALID,21.8887,VALID,49,VALID,1.05508,
2012-08-10, 03:10:04,VALID,1000.93,VALID,0,VALID,91.6241,VALID,0,VALID,21.848,VALID,42,VALID,1.13633,
2012-08-10, 03:11:04,VALID,1000.96,VALID,0,VALID,91.7843,VALID,0,VALID,21.8285,VALID,36,VALID,1.19492,
2012-08-10, 03:12:04,VALID,1000.92,VALID,0,VALID,92.1582,VALID,0,VALID,21.8496,VALID,43,VALID,1.3625,
2012-08-10, 03:13:04,VALID,1000.93,VALID,0,VALID,92.4481,VALID,0,VALID,21.9472,VALID,36,VALID,1.44844,
2012-08-10, 03:14:04,VALID,1000.95,VALID,0,VALID,92.1277,VALID,0,VALID,21.965,VALID,38,VALID,1.79023,
2012-08-10, 03:15:04,VALID,1000.92,VALID,0,VALID,91.8072,VALID,0,VALID,21.9455,VALID,29,VALID,1.71016,
2012-08-10, 03:16:04,VALID,1000.93,VALID,0,VALID,91.8835,VALID,0,VALID,21.926,VALID,39,VALID,1.55313,
2012-08-10, 03:17:04,VALID,1000.9,VALID,0,VALID,92.0743,VALID,0,VALID,21.9277,VALID,36,VALID,1.71484,
2012-08-10, 03:18:04,VALID,1000.92,VALID,0,VALID,92.1506,VALID,0,VALID,21.9277,VALID,34,VALID,1.53281,
2012-08-10, 03:19:04,VALID,1000.93,VALID,0,VALID,92.1658,VALID,0,VALID,21.9277,VALID,34,VALID,1.30195,
2012-08-10, 03:20:04,VALID,1000.93,VALID,0,VALID,92.4481,VALID,0,VALID,21.9472,VALID,34,VALID,1.24766,
2012-08-10, 03:21:04,VALID,1000.92,VALID,0,VALID,92.3489,VALID,0,VALID,21.9065,VALID,22,VALID,1.41016,
2012-08-10, 03:22:04,VALID,1000.95,VALID,0,VALID,92.2497,VALID,0,VALID,21.848,VALID,22,VALID,1.15313,
2012-08-10, 03:23:04,VALID,1000.95,VALID,0,VALID,92.0895,VALID,0,VALID,21.7895,VALID,22,VALID,0.829297,
2012-08-10, 03:24:04,VALID,1000.94,VALID,0,VALID,92.1506,VALID,0,VALID,21.7521,VALID,22,VALID,0.621875,
2012-08-10, 03:25:04,VALID,1000.95,VALID,0,VALID,92.4023,VALID,0,VALID,21.7131,VALID,22,VALID,0.506641,
2012-08-10, 03:26:04,VALID,1000.95,VALID,0,VALID,92.5549,VALID,0,VALID,21.6741,VALID,22,VALID,0.542188,
2012-08-10, 03:27:04,VALID,1000.93,VALID,0,VALID,92.6694,VALID,0,VALID,21.6546,VALID,22,VALID,0.941406,
2012-08-10, 03:28:04,VALID,1000.9,VALID,0,VALID,93.295,VALID,0,VALID,21.7115,VALID,22,VALID,0.7625,
2012-08-10, 03:29:04,VALID,1000.86,VALID,0,VALID,93.6231,VALID,0,VALID,21.7911,VALID,22,VALID,0.839063,
2012-08-10, 03:30:04,VALID,1000.83,VALID,0,VALID,93.7223,VALID,0,VALID,21.8285,VALID,22,VALID,0.852344,
2012-08-10, 03:31:04,VALID,1000.88,VALID,0,VALID,93.6765,VALID,0,VALID,21.848,VALID,22,VALID,0.653125,
2012-08-10, 03:32:04,VALID,1000.91,VALID,0,VALID,93.5849,VALID,0,VALID,21.8887,VALID,22,VALID,0.475391,
2012-08-10, 03:33:04,VALID,1000.86,VALID,0,VALID,93.5163,VALID,0,VALID,21.8887,VALID,22,VALID,0.525781,
2012-08-10, 03:34:04,VALID,1000.86,VALID,0,VALID,93.3942,VALID,0,VALID,21.8887,VALID,22,VALID,0.653906,
2012-08-10, 03:35:04,VALID,1000.91,VALID,0,VALID,93.2416,VALID,0,VALID,21.8675,VALID,22,VALID,0.195703,
2012-08-10, 03:36:04,VALID,1000.88,VALID,0,VALID,93.1271,VALID,0,VALID,21.8692,VALID,22,VALID,0.364844,
2012-08-10, 03:37:04,VALID,1000.91,VALID,0,VALID,93.1043,VALID,0,VALID,21.8496,VALID,22,VALID,0.0523437,
2012-08-10, 03:38:04,VALID,1000.88,VALID,0,VALID,93.1653,VALID,0,VALID,21.809,VALID,22,VALID,0.659766,
2012-08-10, 03:39:04,VALID,1000.9,VALID,0,VALID,93.4171,VALID,0,VALID,21.848,VALID,22,VALID,0.803516,
2012-08-10, 03:40:04,VALID,1000.87,VALID,0,VALID,93.5239,VALID,0,VALID,21.9082,VALID,36,VALID,0.876562,
2012-08-10, 03:41:04,VALID,1000.82,VALID,0,VALID,93.6002,VALID,0,VALID,21.9065,VALID,47,VALID,0.745313,
2012-08-10, 03:42:04,VALID,1000.87,VALID,0,VALID,93.2568,VALID,0,VALID,21.9082,VALID,47,VALID,0.240625,
2012-08-10, 03:43:04,VALID,1000.86,VALID,0,VALID,93.1043,VALID,0,VALID,21.8692,VALID,47,VALID,0.180859,
2012-08-10, 03:44:04,VALID,1000.82,VALID,0,VALID,93.3942,VALID,0,VALID,21.9082,VALID,40,VALID,0.748828,
2012-08-10, 03:45:04,VALID,1000.8,VALID,0,VALID,93.4781,VALID,0,VALID,21.9472,VALID,35,VALID,0.498047,